TITAN 3C TRANSTAGE DEB, 43455

Orbit data source: Space-Track

TITAN 3C TRANSTAGE DEB, 43455 is space debris in GEO originally from a launch on Sun, 09 Feb 1969 UTC launched from the Air Force Eastern Test Range (AFETR). Debris objects in space refer to the collection of defunct objects orbiting the Earth. Examples of debris include non-operational satellites, rocket bodies, and fragments generated from explosions, collisions, or faulty payload assembly.

Loading next visibility...
Identifier
43455, 1969-013N
Orbit
GEO
Country
Flag of USUS
Related business
Manufacturer
Martin Marietta
Mission
Spacecraft
Bus & Motor
Unknown
Mass
Unknown
Launch date (UTC)
1969-02-09 (58 years ago)
Launch vehicle
Unknown
Launch site
Air Force Eastern Test Range (AFETR)
Object type
Payload
Rocket body
Debris
Shape & HBR
Unknown shape, 1.1 m
Radar Cross Section
Medium (>0.1 m² and <1 m²)

Expand to show TLE details & history
Last TLE update: 1 day ago

TLE from 1 day ago
0 TITAN 3C TRANSTAGE DEB
1 43455U 69013N   26254.57159172 -.00000168  00000-0  00000-0 0  9992
2 43455   1.8019 128.6090 0211044  46.8453 315.4092  0.94015536 29165
Epoch: 2026-09-11T13:43Z
TLE epoch observation values (Epoch: 2026-09-11T13:43:05.524Z)
Latitude
0.00001°
Longitude
-67.24144°
Altitude
36,980.356 km
Speed
3.055 km/s
True Right ascension
08h 36m 29s
True Declination
0° 00' 00"
Sunlit
Object was in daylight at epoch
Visualization orbit readout
Latitude
Unknown
Longitude
Unknown
Altitude
Unknown
Speed
Unknown
Apparent Right ascension
Unknown
Apparent Declination
Unknown
Sunlit
N/A
Visualization observer readout
Local Sidereal Time
11:15:52
Azimuth
Unknown
Elevation
Unknown
Doppler factor
Unknown
Orbital elements
Apogee altitude
38,566.965 km
Perigee altitude
36,709.095 km
Semi-major axis
44,016.167 km
Eccentricity
0.0211
Inclination
1.8019°
RAAN
128.609°
Arg. of periapsis
46.8453°
True anomaly
313.67918°
Mean anomaly
315.4092°
Eccentric anomaly
314.54744°
Mean motion
0.23503 °/min
Orbital period
1,531.71 mins
BSTAR
0
Loading maneuver chart data...
Computing Atmospheric mass density...

Documentation

Showing up to 5 results
|